Back to catalog

STARLINK-35651

AliveCommunicationsVLEO
NORAD 66386·PAYLOAD·🇺🇸 United States

Launched Nov 8, 2025 from Cape Canaveral Space Force Station

Loading…

Next Passes (next 24 hours)

TLE

FreshSource: CelesTrak SupGP

Epoch: Sep 14, 2026, 14:59 UTC

1 66386C 25257G   26257.62479167 -.00061305  00000+0 -18110-2 0  2570
2 66386  53.1593  57.3489 0001158  87.6369 133.5029 15.34425834    10

Track STARLINK-35651 in real time with AllMySat

Download on the App Store